Weather in Novoashirovo

Russia / Orenburg Oblast     53°20′01″N   53°18′50″E
temp.,
°C
wind,
m/s
gust,
m/s
humid.,
%
clouds,
%
prec.,
mm/h
press.,
hPa
HPBL,
m
28 september, tue
tue2823:00+5ene81166100 0.0 1013914
02:00+4ne71070100 0.0 1015955
05:00+3ne6117375 0.0 1016786
08:00+3ne713746 0.0 1017762
11:00+6ne8105871 0.0 10191186
14:00+9ne794499 0.0 10191680
17:00+9ne793759 0.0 10201877
20:00+6ne61148100 0.0 1022394
29 september, wed
wed2923:00+4nne51157100 0.0 1023437
02:00+4nne51063100 0.0 1024485
05:00+2nne4971100 0.0 1025303
08:000nne397728 0.0 1027230
11:00+6ne68525 0.0 10271121
14:00+9ne673887 0.0 10261841
17:00+9nne673592 0.0 10261987
20:00+5ne364958 0.0 1028103
30 september, thu
thu3023:00+3ne22605 0.0 102916
02:00+2nne22665 0.0 102911
05:00+1nne22705 0.0 103010
08:000n22715 0.0 103111
11:00+6n23484 0.0 1031599
14:00+9n33365 0.0 10301635
17:00+10nnw34345 0.0 10301754
20:00+5wnw22505 0.0 103017
1 october, fri
fri123:00+4wnw226025 0.0 103110
02:00+3w22686 0.0 103110
05:00+2w227430 0.0 103110
08:00+5w2571100 0.0 1031159
11:00+6wsw3769100 0.0 1030298
14:00+9w5766100 0.0 1030508
17:00+11wnw566399 0.0 10291095
20:00+10w3771100 0.0 1030198
2 october, sat
sat223:00+9w4874100 0.0 1030236
02:00+8wnw228580 0.0 103038
05:00+9wnw227999 0.0 103028
08:00+8wnw238472 0.0 103178
11:00+10nw3471100 0.0 1031350
14:00+13nw346252 0.0 1031706
17:00+13nnw2351100 0.0 1031318
20:00+11e2258100 0.0 103232